This is the latest recevied weather packets stored in our database for station/object KL4TQ. If no packets are shown the sender has not sent any weather packets the latest 10 day(s).
| Time | Temp. | Humidity | Pressure | Rain* | Wind** | Luminosity | Snow |
|---|---|---|---|---|---|---|---|
| 1777781283 | 3.33° C | 77% | 857 hPa | 0 mm | - | 55 W/m² | - |
| 1777780869 | 3.89° C | 76% | 857 hPa | 0 mm | - | 54 W/m² | - |
| 1777780568 | 3.89° C | 75% | 857 hPa | 0 mm | - | 50 W/m² | - |
| 1777780268 | 3.89° C | 73% | 857 hPa | 0 mm | - | 48 W/m² | - |
| 1777779969 | 4.44° C | 71% | 857 hPa | 0 mm | - | 48 W/m² | - |
| 1777779668 | 4.44° C | 70% | 857 hPa | 0 mm | - | 45 W/m² | - |
| 1777779369 | 4.44° C | 69% | 857 hPa | 0 mm | - | 57 W/m² | - |
| 1777779068 | 4.44° C | 69% | 857 hPa | 0 mm | - | 64 W/m² | - |
| 1777778768 | 4.44° C | 69% | 857 hPa | 0 mm | - | 63 W/m² | - |
| 1777778470 | 4.44° C | 69% | 857 hPa | 0 mm | - | 74 W/m² | - |
| 1777778168 | 4.44° C | 69% | 857 hPa | 0 mm | - | 73 W/m² | - |
| 1777777868 | 4.44° C | 70% | 857 hPa | 0 mm | - | 78 W/m² | - |
| 1777777569 | 4.44° C | 70% | 857 hPa | 0 mm | - | 92 W/m² | - |
| 1777777268 | 4.44° C | 68% | 857 hPa | 0 mm | - | 92 W/m² | - |
| 1777776968 | 5° C | 66% | 857 hPa | 0 mm | - | 102 W/m² | - |
| 1777776668 | 5° C | 65% | 857 hPa | 0 mm | - | 113 W/m² | - |
| 1777776368 | 5° C | 67% | 857 hPa | 0 mm | - | 120 W/m² | - |
| 1777776069 | 5° C | 68% | 857 hPa | 0 mm | - | 119 W/m² | - |
| 1777775770 | 5° C | 68% | 857 hPa | 0 mm | - | 149 W/m² | - |
| 1777775468 | 4.44° C | 69% | 857 hPa | 0 mm | - | 191 W/m² | - |
| 1777775169 | 4.44° C | 70% | 857 hPa | 0 mm | - | 180 W/m² | - |
| 1777774868 | 4.44° C | 70% | 857 hPa | 0 mm | - | 125 W/m² | - |
| 1777774570 | 5° C | 70% | 857 hPa | 0 mm | - | 118 W/m² | - |
| 1777774269 | 5° C | 67% | 857 hPa | 0 mm | - | 150 W/m² | - |
| 1777773968 | 5° C | 67% | 857 hPa | 0 mm | - | 205 W/m² | - |
* Rain latest hour (hover to see other rain measurements)
** Current wind speed in m/s (hover to see current wind gust speed)